Weather History for Pontiac, MI

Change the Weather History Date:

Sunday, April 6, 2014

  Actual Average Record
Temperature  
Mean Temperature 38 °F -  
Max Temperature 54 °F 50 °F 77 °F (2005)
Min Temperature 23 °F 32 °F 19 °F (2003)
Degree Days  
Heating Degree Days 27    
Moisture  
Dew Point 20 °F    
Average Humidity 50    
Maximum Humidity 85    
Minimum Humidity 21    
Precipitation  
Precipitation 0.00 in - - ()
Sea Level Pressure  
Sea Level Pressure 30.14 in    
Wind  
Wind Speed 3 mph (SSE)    
Max Wind Speed 12 mph    
Max Gust Speed -    
Visibility 10 miles    
Events      
Averages and records for this station are not official NWS values.
T = Trace of Precipitation, MM = Missing Value Source: NWS Daily Summary

Daily Weather History Graph

Daily Weather History Graph

Search for Another Location

Airport:

Trip Planner

Search our weather history database for the weather conditions in past years. The results will help you decide how hot, cold, wet, or windy it might be!

Date:

Astronomy

Apr. 06, 2014 Rise Set
Actual Time 7:07 AM EDT 8:05 PM EDT
Civil Twilight 6:38 AM EDT 8:34 PM EDT
Nautical Twilight 6:04 AM EDT 9:08 PM EDT
Astronomical Twilight 5:28 AM EDT 9:44 PM EDT
Moon 12:03 PM EDT (4/6) 2:05 AM EDT (4/6)
Length of Visible Light 13h 55m
Length of Day
12h 58m
Waxing Crescent, 43% of the Moon is Illuminated
Apr 6
Waxing Crescent
Apr 7
First Quarter
Apr 15
Full
Apr 22
Last Quarter
Apr 29
New

Hourly Weather History & Observations

Time (EDT) Temp. Windchill Dew Point Humidity Pressure Visibility Wind Dir Wind Speed Gust Speed Precip Events Conditions
12:53 AM 30.0 °F - 21.9 °F 72% 30.19 in 10.0 mi Calm Calm - N/A   Clear
1:53 AM 28.0 °F 24.2 °F 21.0 °F 75% 30.19 in 10.0 mi West 3.5 mph - N/A   Clear
2:53 AM 27.0 °F - 21.0 °F 78% 30.19 in 10.0 mi Calm Calm - N/A   Clear
3:53 AM 27.0 °F - 19.9 °F 75% 30.18 in 10.0 mi Calm Calm - N/A   Clear
4:53 AM 25.0 °F - 21.0 °F 85% 30.18 in 10.0 mi Calm Calm - N/A   Clear
5:53 AM 25.0 °F - 21.0 °F 85% 30.18 in 10.0 mi Calm Calm - N/A   Clear
6:53 AM 23.0 °F - 19.0 °F 85% 30.19 in 9.0 mi Calm Calm - N/A   Clear
7:53 AM 25.0 °F - 21.0 °F 85% 30.19 in 8.0 mi Calm Calm - N/A   Clear
8:53 AM 33.1 °F - 25.0 °F 72% 30.21 in 10.0 mi Calm Calm - N/A   Partly Cloudy
9:53 AM 39.9 °F 36.7 °F 21.0 °F 47% 30.22 in 10.0 mi SW 4.6 mph - N/A   Partly Cloudy
10:53 AM 45.0 °F 42.6 °F 19.9 °F 37% 30.21 in 10.0 mi SW 4.6 mph - N/A   Clear
11:53 AM 48.0 °F - 21.0 °F 34% 30.18 in 10.0 mi Calm Calm - N/A   Clear
12:53 PM 50.0 °F - 21.0 °F 32% 30.16 in 10.0 mi SE 6.9 mph - N/A   Partly Cloudy
1:53 PM 53.1 °F - 19.9 °F 27% 30.15 in 10.0 mi ESE 11.5 mph - N/A   Mostly Cloudy
2:53 PM 53.1 °F - 18.0 °F 25% 30.12 in 10.0 mi Variable 4.6 mph - N/A   Overcast
3:53 PM 53.1 °F - 17.1 °F 24% 30.09 in 10.0 mi Variable 3.5 mph - N/A   Overcast
4:53 PM 53.1 °F - 16.0 °F 23% 30.06 in 10.0 mi SE 9.2 mph - N/A   Overcast
5:53 PM 53.1 °F - 18.0 °F 25% 30.06 in 10.0 mi SE 10.4 mph - N/A   Overcast
6:53 PM 51.1 °F - 12.0 °F 21% 30.06 in 10.0 mi SSE 10.4 mph - N/A   Overcast
7:53 PM 48.0 °F - 9.0 °F 21% 30.07 in 10.0 mi SSE 8.1 mph - N/A   Overcast
8:53 PM 46.0 °F 44.8 °F 19.0 °F 34% 30.05 in 10.0 mi SE 3.5 mph - N/A   Overcast
9:53 PM 45.0 °F 42.6 °F 21.0 °F 39% 30.06 in 10.0 mi SE 4.6 mph - N/A   Overcast
10:53 PM 43.0 °F 41.3 °F 21.9 °F 43% 30.04 in 10.0 mi SE 3.5 mph - N/A   Overcast
11:53 PM 42.1 °F - 23.0 °F 47% 30.04 in 10.0 mi Calm Calm - N/A   Overcast